THORAD AGENA D DEB, 42521

Orbit data source: Space-Track

THORAD AGENA D DEB, 42521 is space debris in SSO originally from a launch on Wed, 08 Apr 1970 UTC launched from the Air Force Western Test Range (AFWTR). Debris objects in space refer to the collection of defunct objects orbiting the Earth. Examples of debris include non-operational satellites, rocket bodies, and fragments generated from explosions, collisions, or faulty payload assembly.

Loading next visibility...
Identifier
42521, 1970-025SB
Orbit
SSO
Country
Flag of USUS
Related business
Manufacturer
Unknown
Mission
Spacecraft
Bus & Motor
Unknown
Mass
Unknown
Launch date (UTC)
1970-04-08 (56 years ago)
Launch vehicle
Unknown
Launch site
Air Force Western Test Range (AFWTR)
Object type
Payload
Rocket body
Debris
Shape & HBR
Unknown shape, 0.1 m
Radar Cross Section
Small (<0.1 m²)

Expand to show TLE details & history
Last TLE update: 2 days ago

TLE from 2 days ago
0 THORAD AGENA D DEB
1 42521U 70025SB  25287.39187517  .00000888  00000-0  89905-3 0  9991
2 42521  99.9692 332.9038 0015339  79.6993 280.5885 13.80192355597770
Epoch: 2025-10-14T09:24Z
TLE epoch observation values (Epoch: 2025-10-14T09:24:18.014Z)
Latitude
-0.00011°
Longitude
168.64779°
Altitude
963.969 km
Speed
7.371 km/s
True Right ascension
22h 11m 36s
True Declination
0° 00' 00"
Sunlit
Object was in full shadow at epoch
Visualization orbit readout
Latitude
Unknown
Longitude
Unknown
Altitude
Unknown
Speed
Unknown
Apparent Right ascension
Unknown
Apparent Declination
Unknown
Sunlit
N/A
Visualization observer readout
Local Sidereal Time
16:02:22
Azimuth
Unknown
Elevation
Unknown
Doppler factor
Unknown
Orbital elements
Apogee altitude
971.737 km
Perigee altitude
949.223 km
Semi-major axis
7,338.617 km
Eccentricity
0.00153
Inclination
99.9692°
RAAN
332.9038°
Arg. of periapsis
79.6993°
True anomaly
280.41566°
Mean anomaly
280.5885°
Eccentric anomaly
280.50209°
Mean motion
3.45241 °/min
Orbital period
104.28 mins
BSTAR
0.00089905

Documentation

Showing up to 5 results
|